Flag for Turkey Weather past 2 weeks in Mersin, Turkey

Now
75 °F

Scattered clouds.


Feels Like: 78 °F
Forecast: 59 / 78 °F
Wind: 15 mph from Southwest

Location: Adana / Sakirpasa

Current Time: May 22, 2015 at 6:15:08 PM

Latest Report: May 22, 2015 at 5:50 PM


Visibility: N/A

Pressure: 29.80 "Hg

Humidity: 57%

Dew point: 59 °F

Location of MersinLocation

Historic Weather in Mersin — Graph

°F

Mersin temperature yesterday

Maximum temperature yesterday: 86 °F (at 1:50 PM)
Minimum temperature yesterday: 66 °F (at 5:20 AM)
Average temperature yesterday: 74 °F

Past Weeks' High & Low Weather Summary

 TemperatureHumidityPressure
High100 °F (May 19, 2:20 PM)94% (May 14, 5:50 AM)30.18 "Hg (May 14, 5:50 AM)
Low59 °F (May 8, 6:20 AM)12% (May 19, 4:20 PM)29.65 "Hg (May 10, 2:20 AM)
Average74 °F56%29.86 "Hg
* Reported May 7 4:20 PM — May 22 4:50 PM, Mersin, Weather by CustomWeather, © 2015

Note: Actual official high and low records may vary slightly from our data, if they occured in-between our weather recording intervals... More about our weather records

Advertising

Mersin weather history for previous 24 hours

 ConditionsComfort  
Time TempWeatherWind HumidityBarometerVisibility
4:50 PM
Fri, May 22
77 °FScattered clouds.16 mph54%29.80 "HgN/A
4:20 PM79 °FScattered clouds.14 mph48%29.80 "HgN/A
3:50 PM79 °FScattered clouds.16 mph51%29.80 "HgN/A
3:20 PM79 °FScattered clouds.14 mph48%29.80 "HgN/A
2:50 PM79 °FScattered clouds.14 mph48%29.80 "HgN/A
2:20 PM81 °FScattered clouds.13 mph42%29.80 "HgN/A
1:50 PM79 °FScattered clouds.13 mph42%29.83 "HgN/A
1:20 PM79 °FScattered clouds.12 mph45%29.83 "HgN/A
12:50 PM79 °FBroken clouds.10 mph45%29.83 "HgN/A
12:20 PM77 °FBroken clouds.10 mph54%29.83 "HgN/A
11:50 AM79 °FScattered clouds.7 mph48%29.83 "HgN/A
11:20 AM77 °FBroken clouds.6 mph54%29.83 "HgN/A
10:50 AM75 °FScattered clouds.6 mph54%29.83 "HgN/A
10:20 AM77 °FScattered clouds.2 mph54%29.83 "HgN/A
9:50 AM75 °FScattered clouds.3 mph61%29.83 "HgN/A
9:20 AM73 °FPartly sunny.2 mph65%29.86 "HgN/A
8:50 AM72 °FPartly sunny.2 mph73%29.86 "HgN/A
8:20 AM70 °FScattered clouds.2 mph73%29.83 "HgN/A
7:50 AM70 °FScattered clouds.1 mph73%29.86 "HgN/A
7:20 AM70 °FScattered clouds.3 mph78%29.83 "HgN/A
6:50 AM68 °FScattered clouds.3 mph83%29.83 "HgN/A
6:20 AM68 °FPassing clouds.5 mph83%29.83 "HgN/A
5:50 AM66 °FPassing clouds.6 mph83%29.83 "HgN/A
5:20 AM66 °FPassing clouds.5 mph83%29.83 "HgN/A
4:50 AM66 °FPassing clouds.2 mph83%29.83 "HgN/A
4:20 AM66 °FPassing clouds.1 mph83%29.83 "HgN/A
3:50 AM66 °FPassing clouds.1 mph83%29.83 "HgN/A
3:20 AM66 °FPassing clouds.3 mph83%29.83 "HgN/A
2:50 AM66 °FPassing clouds.5 mph83%29.83 "HgN/A
2:20 AM66 °FPassing clouds.5 mph83%29.83 "HgN/A
1:50 AM66 °FClear.No wind83%29.86 "Hg10 mi
1:20 AM64 °FClear.1 mph83%29.86 "Hg10 mi
12:50 AM64 °FClear.3 mph83%29.86 "Hg10 mi
12:20 AM64 °FClear.1 mph83%29.86 "Hg10 mi
11:50 PM
Thu, May 21
66 °FClear.2 mph78%29.86 "Hg10 mi
11:20 PM66 °FClear.3 mph78%29.86 "Hg10 mi
10:50 PM66 °FClear.5 mph78%29.86 "Hg10 mi
10:20 PM66 °FClear.2 mph73%29.86 "Hg10 mi
9:50 PM68 °FClear.3 mph69%29.86 "Hg10 mi
9:20 PM68 °FClear.6 mph69%29.86 "Hg10 mi
8:50 PM70 °FClear.6 mph60%29.86 "Hg10 mi
8:20 PM70 °FSunny.6 mph57%29.86 "Hg10 mi
7:50 PM72 °FSunny.7 mph50%29.86 "Hg10 mi
7:20 PM75 °FSunny.8 mph47%29.86 "Hg10 mi
6:50 PM77 °FSunny.10 mph47%29.86 "Hg10 mi
6:20 PM77 °FSunny.13 mph47%29.83 "Hg10 mi
Weather by CustomWeather, © 2015

See weather overviewHow to use our weather pages